User: anonymous   Login
Location: Unspecified
(0.0000°N, 0.0000°E)
Time: 02:55:58
(UTC+00:00)
Language:

GOES 6 - Orbit

View from above orbital plane
View from above orbital plane
View from above satellite
View from above satellite

Ground track
Ground track

The orbit data is extracted from the following two-line orbital elements,

1 14050U 83041A   18170.60335277 -.00000001 +00000-0 +00000-0 0  9998
2 14050 014.3202 346.0734 0000510 316.6765 056.9752 01.00233165186742
Epoch (UTC): 19 June 2018 14:28:49
Eccentricity: 0.0000510
inclination: 14.3202°
perigee height: 35795 km
apogee height: 35799 km
right ascension of ascending node: 346.0734°
argument of perigee: 316.6765°
revolutions per day: 1.00233165
mean anomaly at epoch: 56.9752°
orbit number at epoch: 18674

The dashed part of the orbit path shows where the satellite is in the earth's shadow,  

DLR